Terminal Aerodrome Forecast
Issued by NWS

Home | Current Version | Previous Version | Text Only | Print | Product List | Glossary On
Versions: 1 2 3 4 5 6 7 8 9 10 11 12 13 14 15 16 17 18 19 20
000
FTUS43 KLSX 010800 AAA
TAFCPS
TAF AMD
KCPS 010810Z 0108/0206 14008KT P6SM -RA OVC040
     FM011000 13006KT 4SM -RA OVC020
     FM011200 13008KT 2SM -RA BR OVC007
     FM020000 31008KT 4SM -SN BR OVC007
     FM020300 32012G20KT 4SM -SN OVC007
     FM020500 33013KT P6SM SCT009 OVC012=

USA.gov is the U.S. government's official web portal to all federal, state and local government web resources and services.